FW4773 Weather Reports


Display with metric or nautical units.
time (UTC)temp
F
wind
direction
speed
MPH
gust
MPH
rain 1hr
in
rain 24hr
in
rain mn
in
humidity
%
barometer
mb
20260510081605 51 333 0.0 0.0 0.00 0.00 0.00 94 1013.3
20260510080037 51 351 0.0 0.0 0.00 0.00 0.00 94 1013.0
20260510074635 51 351 0.0 0.0 0.00 0.00 0.00 94 1013.0
20260510073039 52 351 0.0 0.0 0.00 0.00 0.00 93 1012.8
20260510071529 52 351 0.0 0.0 0.00 0.00 0.00 94 1012.8
20260510070026 53 351 0.0 0.0 0.00 0.00 0.00 94 1012.7
20260510064533 53 351 0.0 0.0 0.00 0.00 0.00 93 1012.8
20260510063032 53 351 0.0 0.0 0.00 0.00 0.00 93 1012.8
20260510061521 54 351 0.0 0.0 0.00 0.00 0.00 93 1012.7
20260510060027 54 103 0.0 0.0 0.00 0.00 0.00 93 1012.5
20260510054516 54 103 0.0 0.0 0.00 0.00 0.00 93 1012.6
20260510053010 55 103 0.0 0.0 0.00 0.00 0.00 93 1012.8
20260510051506 55 103 0.0 0.0 0.00 0.00 0.00 93 1012.8
20260510050003 55 103 0.0 0.0 0.00 0.00 0.00 92 1012.8
20260510044617 56 103 0.0 0.0 0.00 0.00 0.00 92 1013.0
20260510043100 56 103 0.0 0.0 0.00 0.00 0.00 92 1012.9
20260510041601 57 103 0.0 0.0 0.00 0.00 0.00 91 1012.8
20260510040049 57 103 0.0 0.0 0.00 0.00 0.00 91 1012.7
20260510034547 58 103 0.0 0.0 0.00 0.00 0.00 90 1012.6
20260510033057 58 103 0.0 0.0 0.00 0.00 0.00 90 1012.5
20260510031542 59 103 0.0 0.0 0.00 0.00 0.00 89 1012.5
20260510030046 60 103 0.0 0.0 0.00 0.00 0.00 88 1012.3
20260510024538 60 103 0.0 0.0 0.00 0.00 0.00 86 1012.3
20260510023036 61 103 0.0 0.0 0.00 0.00 0.00 86 1012.3
20260510021633 61 103 0.0 0.0 0.00 0.00 0.00 85 1012.3
20260510020032 61 103 0.0 0.0 0.00 0.00 0.00 83 1012.2
20260510014534 62 103 0.0 0.0 0.00 0.00 0.00 83 1011.9
20260510013026 63 115 0.0 0.0 0.00 0.00 0.00 82 1011.8
20260510011525 63 115 0.0 0.0 0.00 0.00 0.00 81 1011.7
20260510010026 63 93 0.0 0.0 0.00 0.00 0.00 80 1011.7
20260510004619 64 96 0.0 0.0 0.00 0.00 0.00 78 1011.6
20260510003017 65 96 0.0 2.0 0.00 0.00 0.00 75 1011.4
20260510001515 65 107 0.0 1.0 0.00 0.00 0.00 74 1011.3
20260510000018 66 74 0.0 3.0 0.00 0.00 0.00 73 1011.1
20260509234514 66 185 2.0 4.0 0.00 0.00 0.00 72 1010.9
20260509233011 67 164 2.0 4.0 0.00 0.00 0.00 71 1011.0
20260509231508 68 219 2.0 6.0 0.00 0.00 0.00 69 1010.9
20260509230009 69 204 1.0 4.0 0.00 0.00 0.00 68 1010.9
20260509224503 69 173 2.0 6.0 0.00 0.00 0.00 67 1010.7
20260509223007 69 187 2.0 8.0 0.00 0.00 0.00 68 1010.9
20260509221559 70 217 2.0 5.0 0.00 0.00 0.00 68 1010.9
20260509214556 71 94 0.0 4.0 0.00 0.00 0.00 67 1010.9
20260509213055 71 139 0.0 7.0 0.00 0.00 0.00 66 1010.9
20260509211549 71 111 0.0 3.0 0.00 0.00 0.00 66 1010.7
20260509210047 70 100 1.0 7.0 0.00 0.00 0.00 67 1010.6
20260509204545 70 139 2.0 8.0 0.00 0.00 0.00 68 1010.6
20260509203043 70 206 2.0 5.0 0.00 0.00 0.00 70 1010.8
20260509201549 69 352 0.0 5.0 0.00 0.00 0.00 71 1011.0
20260509200043 68 45 2.0 6.0 0.00 0.00 0.00 73 1011.2
20260509194534 69 2 2.0 5.0 0.00 0.00 0.00 70 1011.3
20260509193037 69 66 0.0 5.0 0.00 0.00 0.00 69 1011.3
20260509191529 68 52 0.0 0.0 0.00 0.00 0.00 71 1011.3
20260509190025 67 353 0.0 0.0 0.00 0.00 0.00 70 1012.0
20260509184530 68 218 0.0 5.0 0.00 0.00 0.00 66 1012.3
20260509183021 69 210 3.0 5.0 0.00 0.00 0.00 60 1012.2
20260509181518 70 200 3.0 6.0 0.00 0.00 0.00 59 1012.4
20260509180017 70 272 2.0 10.0 0.00 0.00 0.00 60 1012.6
20260509174516 69 211 3.0 7.0 0.00 0.00 0.00 59 1012.6
20260509173011 70 209 4.0 7.0 0.00 0.00 0.00 59 1012.6
20260509171514 70 214 4.0 12.0 0.00 0.00 0.00 57 1012.7
20260509170007 69 216 4.0 14.0 0.00 0.00 0.00 57 1012.8
20260509164504 69 200 6.0 11.0 0.00 0.00 0.00 56 1012.7
20260509163005 70 211 4.0 11.0 0.00 0.00 0.00 57 1012.7
20260509161600 70 136 7.0 13.0 0.00 0.00 0.00 57 1012.7
20260509160057 70 199 4.0 0.0 0.00 0.00 0.00 60 1012.9
20260509154553 69 224 8.0 13.0 0.00 0.00 0.00 60 1013.1
20260509153050 68 215 7.0 14.0 0.00 0.00 0.00 62 1013.0
20260509151643 68 158 2.0 11.0 0.00 0.00 0.00 63 1013.3
20260509150036 67 200 3.0 8.0 0.00 0.00 0.00 65 1013.6
20260509144551 66 180 1.0 4.0 0.00 0.00 0.00 68 1013.8
20260509143029 65 184 1.0 4.0 0.00 0.00 0.00 69 1013.9
20260509141530 64 237 1.0 4.0 0.00 0.00 0.00 72 1013.8
20260509140019 63 188 3.0 7.0 0.00 0.00 0.00 71 1013.9
20260509134517 63 208 3.0 5.0 0.00 0.00 0.00 71 1014.0
20260509133013 62 200 2.0 6.0 0.00 0.00 0.00 72 1014.0
20260509131515 62 219 2.0 7.0 0.00 0.00 0.00 72 1014.1
20260509130003 61 232 3.0 7.0 0.00 0.00 0.00 73 1014.0
20260509124613 61 173 3.0 7.0 0.00 0.00 0.00 74 1014.0
20260509123100 60 216 4.0 11.0 0.00 0.00 0.00 74 1014.0
20260509121552 59 204 5.0 11.0 0.00 0.00 0.00 75 1014.3
20260509120052 59 193 3.0 10.0 0.00 0.00 0.00 76 1014.3
20260509114545 59 189 2.0 7.0 0.00 0.00 0.00 75 1014.2
20260509113044 58 214 2.0 8.0 0.00 0.00 0.00 76 1014.2
20260509111540 58 218 2.0 7.0 0.00 0.00 0.00 75 1014.0
20260509110035 0 0.0 0.0 0.00 0.00 0.00 1014.2
20260509104535 0 0.0 0.0 0.00 0.00 0.00 1014.1
20260509103025 0 0.0 0.0 0.00 0.00 0.00 1013.9
20260509101520 0 212 1.0 2.0 0.00 0.00 0.00 71 1013.9
20260509100030 58 204 0.0 2.0 0.00 0.00 0.00 72 1013.7
20260509094521 58 226 0.0 2.0 0.00 0.00 0.00 71 1013.7
20260509093016 58 205 0.0 1.0 0.00 0.00 0.00 70 1013.7
20260509091513 58 205 0.0 1.0 0.00 0.00 0.00 68 1013.9
20260509090013 59 212 0.0 2.0 0.00 0.00 0.00 67 1013.8
20260509084514 59 205 1.0 3.0 0.00 0.00 0.00 69 1014.0
20260509083006 59 200 0.0 2.0 0.00 0.00 0.00 67 1014.0